Zurück zum Katalog

COSMOS 252 DEB

AktivUNKNOWN
NORAD 3788·DEBRIS·🇷🇺 Russia

Gestartet Nov 1, 1968 von Baikonur Cosmodrome

Loading…

Nächste Überflüge (nächste 24 Stunden)

TLE

AktuellSource: Space-Track

Epoche: Sep 14, 2026, 12:52 UTC

1 03788U 68097BA  26257.53654203 -.00000040  00000-0  21237-3 0  9999
2 03788  61.8729 290.1156 0581349  40.8014  33.1157 11.88459683511046

Verfolge COSMOS 252 DEB in Echtzeit mit AllMySat

Download on the App Store